TimeCST,TemperatureF,Dew PointF,Humidity,Sea Level PressureIn,VisibilityMPH,Wind Direction,Wind SpeedMPH,Gust SpeedMPH,PrecipitationIn,Events,Conditions,WindDirDegrees,DateUTC
12:15 AM,7.7,2.3,79,30.27,10.0,Calm,Calm,-,N/A,,Overcast,0,2013-01-15 06:15:00
12:35 AM,8.4,2.3,76,30.26,10.0,Calm,Calm,-,N/A,,Overcast,0,2013-01-15 06:35:00
12:55 AM,8.4,2.8,78,30.24,10.0,Calm,Calm,-,N/A,,Overcast,0,2013-01-15 06:55:00
1:15 AM,8.6,3.0,78,30.24,10.0,Calm,Calm,-,N/A,,Overcast,0,2013-01-15 07:15:00
1:35 AM,9.3,3.4,77,30.24,10.0,Calm,Calm,-,N/A,,Overcast,0,2013-01-15 07:35:00
1:55 AM,9.5,3.4,76,30.23,10.0,Calm,Calm,-,N/A,,Overcast,0,2013-01-15 07:55:00
2:15 AM,9.5,3.6,77,30.23,10.0,Calm,Calm,-,N/A,,Overcast,0,2013-01-15 08:15:00
2:35 AM,9.9,4.3,78,30.22,7.0,Calm,Calm,-,N/A,Snow,Light Snow,0,2013-01-15 08:35:00
2:55 AM,9.9,4.6,79,30.22,7.0,Calm,Calm,-,N/A,Snow,Light Snow,0,2013-01-15 08:55:00
3:15 AM,10.0,5.0,80,30.22,10.0,Calm,Calm,-,N/A,Snow,Light Snow,0,2013-01-15 09:15:00
3:35 AM,10.0,5.0,80,30.21,10.0,SW,3.5,-,N/A,,Overcast,230,2013-01-15 09:35:00
3:55 AM,10.0,5.5,82,30.21,10.0,Calm,Calm,-,N/A,,Overcast,0,2013-01-15 09:55:00
4:15 AM,10.0,5.5,82,30.21,10.0,Calm,Calm,-,N/A,,Overcast,0,2013-01-15 10:15:00
4:55 AM,7.2,4.6,89,30.19,10.0,Calm,Calm,-,N/A,Snow,Light Snow,0,2013-01-15 10:55:00
5:15 AM,7.3,3.9,86,30.19,10.0,SSW,3.5,-,N/A,,Overcast,210,2013-01-15 11:15:00
5:35 AM,6.4,3.4,87,30.18,10.0,SW,5.8,-,N/A,,Scattered Clouds,230,2013-01-15 11:35:00
5:55 AM,6.6,3.0,85,30.18,10.0,SW,4.6,-,N/A,,Clear,220,2013-01-15 11:55:00
6:15 AM,5.7,3.0,89,30.18,10.0,SW,4.6,-,N/A,,Clear,230,2013-01-15 12:15:00
6:35 AM,5.9,2.7,87,30.19,10.0,SW,5.8,-,N/A,,Clear,230,2013-01-15 12:35:00
6:55 AM,5.5,2.3,86,30.19,10.0,SW,5.8,-,N/A,,Scattered Clouds,230,2013-01-15 12:55:00
7:15 AM,5.0,1.9,87,30.19,10.0,SW,5.8,-,N/A,,Mostly Cloudy,230,2013-01-15 13:15:00
7:35 AM,5.4,2.1,86,30.19,10.0,WSW,4.6,-,N/A,,Overcast,240,2013-01-15 13:35:00
7:55 AM,4.6,1.4,86,30.20,10.0,WSW,5.8,-,N/A,,Scattered Clouds,240,2013-01-15 13:55:00
8:15 AM,5.0,1.8,86,30.20,10.0,WSW,5.8,-,N/A,,Clear,240,2013-01-15 14:15:00
8:35 AM,5.2,1.9,86,30.20,10.0,WSW,3.5,-,N/A,Snow,Light Snow,240,2013-01-15 14:35:00
8:55 AM,6.8,3.0,84,30.20,5.0,SW,6.9,-,N/A,Snow,Light Snow,220,2013-01-15 14:55:00
9:15 AM,8.1,4.1,84,30.19,7.0,WSW,5.8,-,N/A,Snow,Light Snow,250,2013-01-15 15:15:00
9:35 AM,8.4,3.9,82,30.19,10.0,SW,10.4,-,N/A,,Mostly Cloudy,230,2013-01-15 15:35:00
9:55 AM,8.6,4.1,82,30.19,10.0,WSW,12.7,-,N/A,,Overcast,240,2013-01-15 15:55:00
10:15 AM,8.8,4.1,81,30.19,10.0,WSW,11.5,-,N/A,,Overcast,240,2013-01-15 16:15:00
10:35 AM,9.9,4.6,79,30.19,10.0,WSW,8.1,-,N/A,,Overcast,240,2013-01-15 16:35:00
10:55 AM,10.8,5.0,78,30.18,10.0,WSW,8.1,-,N/A,,Overcast,240,2013-01-15 16:55:00
11:15 AM,12.0,6.1,77,30.16,10.0,WSW,6.9,-,N/A,,Overcast,250,2013-01-15 17:15:00
11:35 AM,13.5,6.8,75,30.14,10.0,WSW,6.9,-,N/A,,Overcast,240,2013-01-15 17:35:00
11:55 AM,15.3,7.5,71,30.12,10.0,SSW,6.9,-,N/A,,Overcast,210,2013-01-15 17:55:00
12:15 PM,17.2,7.9,67,30.11,10.0,SW,9.2,-,N/A,,Overcast,230,2013-01-15 18:15:00
12:35 PM,19.2,8.4,63,30.09,10.0,SW,6.9,-,N/A,,Mostly Cloudy,230,2013-01-15 18:35:00
12:55 PM,21.0,9.3,61,30.07,10.0,WSW,10.4,-,N/A,,Mostly Cloudy,240,2013-01-15 18:55:00
1:15 PM,22.6,10.2,59,30.06,10.0,SW,12.7,-,N/A,,Scattered Clouds,230,2013-01-15 19:15:00
1:35 PM,23.9,10.9,58,30.04,10.0,SW,9.2,-,N/A,,Clear,230,2013-01-15 19:35:00
1:55 PM,24.8,11.1,56,30.03,10.0,SSW,15.0,-,N/A,,Clear,200,2013-01-15 19:55:00
2:15 PM,25.7,10.8,53,30.02,10.0,SSW,16.1,-,N/A,,Clear,210,2013-01-15 20:15:00
2:35 PM,26.2,10.6,52,30.01,10.0,SW,12.7,19.6,N/A,,Clear,220,2013-01-15 20:35:00
2:55 PM,27.1,10.2,49,30.00,10.0,SW,9.2,-,N/A,,Clear,230,2013-01-15 20:55:00
3:15 PM,27.3,9.9,48,29.99,10.0,SW,12.7,17.3,N/A,,Clear,230,2013-01-15 21:15:00
3:35 PM,27.5,9.7,47,29.99,10.0,SW,10.4,19.6,N/A,,Clear,230,2013-01-15 21:35:00
3:55 PM,27.3,9.5,47,29.98,10.0,SW,17.3,23.0,N/A,,Clear,220,2013-01-15 21:55:00
4:15 PM,26.8,9.3,48,29.98,10.0,SW,12.7,-,N/A,,Clear,230,2013-01-15 22:15:00
4:35 PM,25.9,8.8,48,29.97,10.0,SW,9.2,-,N/A,,Clear,220,2013-01-15 22:35:00
4:55 PM,24.8,8.6,50,29.96,10.0,SW,10.4,-,N/A,,Clear,220,2013-01-15 22:55:00
5:15 PM,23.9,9.3,54,29.96,10.0,SW,11.5,-,N/A,,Clear,220,2013-01-15 23:15:00
5:35 PM,23.9,9.5,54,29.95,10.0,SSW,12.7,17.3,N/A,,Clear,210,2013-01-15 23:35:00
5:55 PM,23.7,9.5,55,29.94,10.0,SSW,13.8,21.9,N/A,,Clear,210,2013-01-15 23:55:00
6:15 PM,23.2,9.7,56,29.93,10.0,SW,12.7,20.7,N/A,,Clear,220,2013-01-16 00:15:00
6:35 PM,22.8,10.0,58,29.91,10.0,SW,12.7,17.3,N/A,,Clear,220,2013-01-16 00:35:00
6:55 PM,23.0,10.0,58,29.91,10.0,SW,17.3,-,N/A,,Clear,220,2013-01-16 00:55:00
7:15 PM,22.8,10.2,59,29.90,10.0,SW,15.0,-,N/A,,Clear,220,2013-01-16 01:15:00
7:35 PM,22.3,10.2,60,29.89,10.0,SW,13.8,-,N/A,,Clear,220,2013-01-16 01:35:00
7:55 PM,22.3,10.4,60,29.88,10.0,SW,11.5,-,N/A,,Clear,230,2013-01-16 01:55:00
8:15 PM,21.9,11.1,63,29.86,10.0,SW,11.5,17.3,N/A,,Clear,220,2013-01-16 02:15:00
8:35 PM,22.5,12.2,65,29.84,10.0,SW,12.7,-,N/A,,Clear,220,2013-01-16 02:35:00
8:55 PM,23.0,12.0,63,29.81,10.0,SW,16.1,20.7,N/A,,Clear,220,2013-01-16 02:55:00
9:15 PM,23.4,12.0,62,29.81,10.0,SW,12.7,18.4,N/A,,Clear,230,2013-01-16 03:15:00
9:35 PM,23.7,12.4,62,29.79,10.0,SW,12.7,-,N/A,,Clear,230,2013-01-16 03:35:00
9:55 PM,23.9,12.6,62,29.78,10.0,SW,13.8,17.3,N/A,,Clear,230,2013-01-16 03:55:00
10:15 PM,23.9,12.7,62,29.76,10.0,SW,12.7,20.7,N/A,,Clear,230,2013-01-16 04:15:00
10:35 PM,24.4,12.9,62,29.75,10.0,SW,13.8,21.9,N/A,,Clear,230,2013-01-16 04:35:00
10:55 PM,24.6,13.1,62,29.74,10.0,SW,16.1,23.0,N/A,,Scattered Clouds,230,2013-01-16 04:55:00
11:15 PM,24.8,12.2,59,29.73,10.0,SW,16.1,26.5,N/A,,Scattered Clouds,230,2013-01-16 05:15:00
11:35 PM,24.4,12.0,59,29.71,10.0,SW,17.3,25.3,N/A,,Clear,230,2013-01-16 05:35:00